Tracking 20093 objects as of 14-Dec-2019
HD Live streaming from Space Station
objects crossing your sky now

COSMOS 2251 DEB

Track COSMOS 2251 DEB now!
10-day predictions


NORAD ID: 39110
Int'l Code: 1993-036BTZ
Perigee: 611.9 km
Apogee: 768.2 km
Inclination: 74.0 °
Period: 98.4 minutes
Semi major axis: 7061 km
RCS: 0.003 m2 (small)
Launch date: June 16, 1993
Source: Commonwealth of Independent States (former USSR) (CIS)
Launch site: PLESETSK MISSILE AND SPACE COMPLEX (PKMTR)

Note: This is SATELLITE DEBRIS
aabbcc
Your satellite tracking list
Your tracking list is empty




NASA's NSSDC Master Catalog

Two Line Element Set (TLE):
1 39110U 93036BTZ 19347.33331109 +.00000145 +00000-0 +32148-4 0  9994
2 39110 073.9611 342.1628 0110701 008.4464 050.8833 14.63176489303760
Source of the keplerian elements: AFSPC